Date String (YYYY-MM-DD hh:mm:ss) UTC,Instrument flags,Ambient pressure (hPa),Sample flow (lpm),Bypass flow (lpm),Sample temperature (°C),Ambient temperature (°C),ASC tube jacket temperature (°C),LED temperature (°C),Box temperature (°C),Sample RH (%),Span deviation,Mass concentration (μg/m³),Mass concentration (μg/m³),Mass concentration (μg/m³)
DateTimeUTC,F1_M11,P_M11,Q1_M11,Q2_M11,T1_M11,T2_M11,T3_M11,T4_M11,T5_M11,U1_M11,ZSPAN_M11,X0_M11,X2_M11,X1_M11
2023-05-20 11:00:00,,0836.9,4.99,0.00,28.2,26.6,00.0,36.6,29.8,27.1,0003.0,0122.22,0089.36,0084.90
2023-05-20 11:01:00,,0837.0,5.00,0.00,28.2,26.6,00.0,36.6,29.8,26.9,0002.9,0121.05,0088.96,0084.59
2023-05-20 11:02:00,,0837.0,4.99,0.00,28.2,26.6,00.0,36.6,29.9,26.6,0002.9,0120.16,0088.61,0084.21
2023-05-20 11:03:00,,0837.0,5.00,0.00,28.2,26.6,00.0,36.6,29.8,26.5,0002.9,0119.77,0088.23,0083.83
2023-05-20 11:04:00,,0837.0,5.01,0.00,28.2,26.6,00.0,36.6,29.8,26.6,0002.9,0119.75,0088.13,0083.66
2023-05-20 11:05:00,,0837.0,5.00,0.00,28.2,26.6,00.0,36.6,29.9,26.7,0002.8,0120.51,0088.50,0083.88
2023-05-20 11:06:00,,0837.0,4.98,0.00,28.3,26.6,00.0,36.6,29.9,26.8,0002.8,0121.16,0088.79,0084.09
2023-05-20 11:07:00,,0837.0,5.00,0.00,28.3,26.6,00.0,36.6,29.8,26.8,0002.9,0121.94,0089.21,0084.42
2023-05-20 11:08:00,,0837.0,5.02,0.00,28.3,26.6,00.0,36.6,29.8,26.8,0002.9,0122.29,0089.57,0084.81
2023-05-20 11:09:00,,0837.0,5.00,0.00,28.3,26.7,00.0,36.6,29.9,26.8,0002.8,0122.58,0089.93,0085.23
2023-05-20 11:10:00,,0837.0,4.99,0.00,28.3,26.7,00.0,36.6,29.9,26.7,0002.8,0123.44,0090.27,0085.58
2023-05-20 11:11:00,,0837.0,4.99,0.00,28.3,26.7,00.0,36.6,29.9,26.7,0002.8,0124.09,0090.58,0085.82
2023-05-20 11:12:00,,0837.0,5.00,0.00,28.3,26.7,00.0,36.6,29.9,26.6,0002.9,0124.70,0090.91,0086.06
2023-05-20 11:13:00,,0837.0,5.00,0.00,28.3,26.7,00.0,36.6,29.9,26.7,0002.9,0125.06,0091.19,0086.38
2023-05-20 11:14:00,,0837.0,5.00,0.00,28.3,26.7,00.0,36.6,29.9,26.6,0002.9,0125.16,0091.43,0086.66
2023-05-20 11:15:00,,0837.0,5.00,0.00,28.3,26.7,00.0,36.6,29.9,26.5,0002.9,0125.08,0091.31,0086.59
2023-05-20 11:16:00,,0836.9,5.01,0.00,28.3,26.7,00.0,36.6,29.9,26.5,0002.9,0124.36,0090.77,0086.14
2023-05-20 11:17:00,,0837.0,5.01,0.00,28.3,26.7,00.0,36.6,29.9,26.5,0002.9,0123.53,0090.20,0085.63
2023-05-20 11:18:00,,0836.9,5.00,0.00,28.3,26.7,00.0,36.6,29.9,26.6,0002.9,0123.03,0089.84,0085.28
2023-05-20 11:19:00,,0837.0,5.00,0.00,28.3,26.7,00.0,36.6,29.9,26.6,0002.8,0123.36,0089.89,0085.24
2023-05-20 11:20:00,,0837.0,5.00,0.00,28.3,26.7,00.0,36.6,29.9,26.6,0002.9,0124.06,0090.03,0085.33
2023-05-20 11:21:00,,0837.0,5.00,0.00,28.3,26.7,00.0,36.6,29.9,26.6,0002.9,0124.27,0090.33,0085.54
2023-05-20 11:22:00,,0836.9,5.00,0.00,28.3,26.7,00.0,36.6,29.9,26.5,0002.9,0124.78,0090.74,0085.93
2023-05-20 11:23:00,,0836.9,5.00,0.00,28.3,26.6,00.0,36.6,29.9,26.4,0002.8,0126.20,0091.45,0086.56
2023-05-20 11:24:00,,0836.9,5.00,0.00,28.3,26.6,00.0,36.6,29.9,26.4,0002.7,0127.68,0092.21,0087.18
2023-05-20 11:25:00,,0836.9,5.00,0.00,28.3,26.6,00.0,36.6,29.9,26.4,0002.7,0129.43,0093.05,0087.86
2023-05-20 11:26:00,,0837.0,5.00,0.00,28.3,26.6,00.0,36.6,29.9,26.4,0002.7,0130.72,0093.82,0088.59
2023-05-20 11:27:00,,0837.0,5.00,0.00,28.3,26.6,00.0,36.6,29.9,26.3,0002.8,0131.30,0094.32,0089.10
2023-05-20 11:28:00,,0837.0,5.01,0.00,28.3,26.6,00.0,36.6,29.9,26.3,0002.8,0132.05,0094.76,0089.51
2023-05-20 11:29:00,,0837.0,5.00,0.00,28.3,26.6,00.0,36.6,29.9,26.2,0002.8,0132.96,0095.24,0089.96
2023-05-20 11:30:00,,0837.0,5.00,0.00,28.3,26.6,00.0,36.6,29.9,26.2,0002.8,0133.62,0095.36,0090.11
2023-05-20 11:31:00,,0837.0,5.00,0.00,28.3,26.6,00.0,36.6,29.9,26.2,0002.8,0132.71,0095.12,0090.00
2023-05-20 11:32:00,,0836.9,4.99,0.00,28.3,26.6,00.0,36.6,29.9,26.0,0002.8,0131.63,0094.51,0089.49
2023-05-20 11:33:00,,0837.0,4.99,0.00,28.2,26.6,00.0,36.6,29.9,25.9,0002.8,0130.04,0093.43,0088.54
2023-05-20 11:34:00,,0836.9,5.01,0.00,28.2,26.6,00.0,36.6,29.9,26.0,0002.8,0127.63,0092.02,0087.25
2023-05-20 11:35:00,,0836.8,5.00,0.00,28.2,26.6,00.0,36.6,29.9,26.0,0002.8,0125.34,0090.60,0085.97
2023-05-20 11:36:00,,0836.8,5.00,0.00,28.2,26.6,00.0,36.6,29.9,26.0,0002.8,0122.90,0089.14,0084.69
2023-05-20 11:37:00,,0836.8,5.01,0.00,28.2,26.6,00.0,36.6,29.9,26.0,0002.8,0120.51,0087.81,0083.44
2023-05-20 11:38:00,,0836.8,5.00,0.00,28.2,26.6,00.0,36.6,29.9,26.0,0002.8,0118.79,0086.70,0082.38
2023-05-20 11:39:00,,0836.7,4.99,0.00,28.2,26.6,00.0,36.6,29.9,26.0,0002.8,0117.09,0085.76,0081.47
2023-05-20 11:40:00,,0836.8,5.00,0.00,28.2,26.6,00.0,36.6,29.9,25.9,0002.8,0114.83,0084.47,0080.32
2023-05-20 11:41:00,,0836.8,5.00,0.00,28.2,26.6,00.0,36.6,29.9,25.8,0002.8,0112.04,0083.01,0079.01
2023-05-20 11:42:00,,0836.8,4.99,0.00,28.2,26.6,00.0,36.6,29.8,25.8,0002.9,0110.38,0081.89,0077.90
2023-05-20 11:43:00,,0836.8,5.00,0.00,28.2,26.6,00.0,36.6,29.8,25.9,0002.8,0109.48,0081.21,0077.21
2023-05-20 11:44:00,,0836.7,5.01,0.00,28.2,26.6,00.0,36.6,29.9,25.7,0002.7,0108.31,0080.41,0076.48
2023-05-20 11:45:00,,0836.8,5.00,0.00,28.2,26.6,00.0,36.6,29.8,25.7,0002.8,0106.91,0079.54,0075.67
2023-05-20 11:46:00,,0836.8,5.01,0.00,28.2,26.6,00.0,36.6,29.8,25.7,0002.8,0105.74,0078.83,0074.98
2023-05-20 11:47:00,,0836.8,5.00,0.00,28.2,26.6,00.0,36.6,29.9,25.7,0002.8,0104.58,0078.18,0074.37
2023-05-20 11:48:00,,0836.8,5.00,0.00,28.3,26.6,00.0,36.6,29.9,25.7,0002.8,0103.74,0077.53,0073.71
2023-05-20 11:49:00,,0836.8,5.00,0.00,28.3,26.6,00.0,36.6,29.9,25.7,0002.8,0102.99,0076.95,0073.15
2023-05-20 11:50:00,,0836.8,5.00,0.00,28.3,26.6,00.0,36.6,29.9,25.7,0002.8,0102.24,0076.45,0072.69
2023-05-20 11:51:00,,0836.8,5.00,0.00,28.3,26.7,00.0,36.6,29.9,25.6,0002.8,0102.07,0076.15,0072.34
2023-05-20 11:52:00,,0836.8,5.00,0.00,28.3,26.7,00.0,36.6,29.9,25.5,0002.8,0101.73,0075.91,0072.06
2023-05-20 11:53:00,,0836.8,5.00,0.00,28.3,26.7,00.0,36.6,29.9,25.5,0002.7,0101.15,0075.43,0071.59
2023-05-20 11:54:00,,0836.8,5.00,0.00,28.3,26.7,00.0,36.6,29.9,25.5,0002.7,0101.03,0075.01,0071.16
2023-05-20 11:55:00,,0836.8,5.00,0.00,28.3,26.7,00.0,36.6,29.9,25.6,0002.8,0101.17,0075.11,0071.24
2023-05-20 11:56:00,,0836.8,5.00,0.00,28.3,26.7,00.0,36.6,29.9,25.6,0002.7,0102.00,0075.47,0071.57
2023-05-20 11:57:00,,0836.8,5.00,0.00,28.3,26.7,00.0,36.6,29.9,25.7,0002.6,0102.38,0075.73,0071.80
2023-05-20 11:58:00,,0836.7,5.00,0.00,28.3,26.7,00.0,36.6,29.9,25.8,0002.6,0102.98,0076.19,0072.29
2023-05-20 11:59:00,,0836.8,5.00,0.00,28.3,26.7,00.0,36.6,29.9,25.8,0002.6,0103.19,0076.38,0072.55
